Location: Unspecified
(41.1637°N, 24.2901°E)
Time: 21:49:22
(UTC+02:00)

ISS - Pass Details

Date: 01 June 2023
Orbit: 411 x 419 km, 51.6° (Epoch: 06 June)

Event Time Altitude Azimuth Distance (km) Brightness Sun altitude
Rises 21:12:00 0° 288° (WNW) 2,351 1.2 -13.1°
Reaches altitude 10° 21:15:01 10° 258° (WSW) 1,486 -0.5 -13.5°
Maximum altitude 21:16:33 13° 230° (SW) 1,334 -1.2 -13.7°
Drops below altitude 10° 21:18:04 10° 203° (SSW) 1,483 -1.2 -13.9°
Enters shadow 21:18:25 - 198° (SSW) 1,554 -1.2 -13.9°
